Regional Weather Roundup
Issued by NWS

Home | Current Version | Previous Version | Text Only | Print | Product List | Glossary Off
Versions: 1 2 3 4 5 6 7 8 9 10 11 12 13 14 15 16 17 18 19 20 21 22 23 24 25 26 27 28 29 30 31 32 33 34 35 36 37 38 39 40 41 42 43 44 45 46 47 48 49 50

000
ASUS43 KFSD 251302
RWRSD

WEATHER ROUNDUP FOR SOUTH DAKOTA
NATIONAL WEATHER SERVICE SIOUX FALLS SD
800 AM CDT SUN SEP 25 2016

NOTE: "FAIR" INDICATES FEW OR NO CLOUDS BELOW 12,000 FEET WITH NO
SIGNIFICANT WEATHER AND/OR OBSTRUCTIONS TO VISIBILITY.


SDZ001>005-009-010-012>017-251400-
NORTHWEST AND NORTH CENTRAL SOUTH DAKOTA

CITY           SKY/WX    TMP DP  RH WIND       PRES   REMARKS
BUFFALO          N/A     44  38  79 NW21      30.17R
FAITH            N/A     48  40  73 NW25G36   30.14R
MOBRIDGE       MOCLDY    55  46  71 NW25G39   29.98R
$$

SDZ012>016-024>037-041>051-057-063-072>074-251400-
SOUTHWEST AND SOUTH CENTRAL SOUTH DAKOTA

CITY           SKY/WX    TMP DP  RH WIND       PRES   REMARKS
RAPID CTY ARPT CLEAR     49  35  58 NW17      30.26R
PIERRE         PTCLDY    55  44  66 NW26G36   30.05R
CUSTER         CLEAR     39  27  62 W9        30.30R
ELLSWORTH AFB  CLEAR     49  36  62 NW22G30   30.24R
PHILIP         CLEAR     52  43  71 W21G30    30.18R
PINE RIDGE     CLEAR     45  42  89 NW8       30.30R
WINNER         FAIR      56  43  61 NW18G31   30.12R
$$

SDZ004>011-016>023-039-040-251400-
NORTHEAST SOUTH DAKOTA

CITY           SKY/WX    TMP DP  RH WIND       PRES   REMARKS
ABERDEEN       CLOUDY    56  49  77 W21G31    29.88R
WATERTOWN      CLOUDY    55  50  83 W21       29.89R
SISSETON         N/A     59  51  75 W23G33    29.80R
$$

SDZ017-020-022-023-036>040-048>070-251400-
SOUTHEAST SOUTH DAKOTA

CITY           SKY/WX    TMP DP  RH WIND       PRES   REMARKS
SIOUX FALLS    MOCLDY    55  48  77 W7        29.99R
HURON          CLOUDY    57  48  72 W20G28    29.97R
CHAMBERLAIN    CLOUDY    58  47  65 W21       30.06R
MITCHELL       CLOUDY    59  46  62 W15G26    30.01R
YANKTON        CLEAR     55  46  71 W12       30.04R
$$

ABBREVIATIONS USED IN REMARKS
   TC - TEMPERATURE IN CELSIUS
  WCI - WIND CHILL INDEX
   HX - HEAT INDEX
  VSB - VISIBILITY





USA.gov is the U.S. government's official web portal to all federal, state and local government web resources and services.